Flag for U.S.A. Weather past 2 weeks in Buffalo, New York, U.S.A.

Now
63 °F

Light rain. Mostly cloudy.


Feels Like: 63 °F
Forecast: 62 / 68 °F
Wind: 6 mph from Southwest

Location: Greater Buffalo International Airport

Current Time: Jun 30, 2015 at 6:07:36 AM

Latest Report: Jun 30, 2015 at 4:54 AM


Visibility: 10 mi

Pressure: 29.85 "Hg

Humidity: 78%

Dew point: 56 °F

Location of BuffaloLocation

Historic Weather in Buffalo — Graph

°F

Buffalo temperature yesterday

Maximum temperature yesterday: 72 °F (at 3:54 PM)
Minimum temperature yesterday: 58 °F (at 12:54 AM)
Average temperature yesterday: 65 °F

Past Weeks' High & Low Weather Summary

 TemperatureHumidityPressure
High80 °F (Jun 22, 5:54 PM)97% (Jun 15, 4:54 AM)30.17 "Hg (Jun 15, 4:54 AM)
Low54 °F (Jun 20, 4:54 AM)36% (Jun 22, 5:54 PM)29.65 "Hg (Jun 23, 5:54 AM)
Average67 °F74%29.93 "Hg
* Reported Jun 15 4:54 AM — Jun 30 4:54 AM, Buffalo, Weather by CustomWeather, © 2015

Note: Actual official high and low records may vary slightly from our data, if they occured in-between our weather recording intervals... More about our weather records

Advertising

Buffalo weather history for previous 24 hours

 ConditionsComfort  
Time TempWeatherWind HumidityBarometerVisibility
4:54 AM
Tue, Jun 30
63 °FLight rain. Mostly cloudy.6 mph78%29.85 "Hg10 mi
3:54 AM65 °FOvercast.7 mph73%29.85 "Hg10 mi
2:54 AM64 °FMostly cloudy.6 mph81%29.86 "Hg10 mi
1:54 AM63 °FOvercast.8 mph81%29.88 "Hg10 mi
12:54 AM64 °FPassing clouds.6 mph78%29.88 "Hg10 mi
11:54 PM
Mon, Jun 29
65 °FPartly cloudy.5 mph76%29.90 "Hg10 mi
10:54 PM66 °FPassing clouds.6 mph73%29.91 "Hg10 mi
9:54 PM67 °FScattered clouds.6 mph66%29.90 "Hg10 mi
8:54 PM69 °FScattered clouds.5 mph59%29.88 "Hg10 mi
7:54 PM71 °FPartly sunny.9 mph55%29.88 "Hg10 mi
6:54 PM71 °FBroken clouds.8 mph49%29.88 "Hg10 mi
5:54 PM71 °FPartly sunny.7 mph51%29.89 "Hg10 mi
4:54 PM71 °FPartly sunny.10 mph55%29.89 "Hg10 mi
3:54 PM72 °FPartly sunny.7 mph53%29.90 "Hg10 mi
2:54 PM71 °FPartly sunny.10 mph57%29.91 "Hg10 mi
1:54 PM70 °FPassing clouds.10 mph61%29.91 "Hg10 mi
12:54 PM68 °FScattered clouds.10 mph65%29.91 "Hg10 mi
11:54 AM68 °FScattered clouds.12 mph68%29.90 "Hg10 mi
10:54 AM68 °FScattered clouds.9 mph63%29.91 "Hg10 mi
9:54 AM65 °FPartly sunny.10 mph70%29.92 "Hg10 mi
8:54 AM63 °FPartly sunny.7 mph78%29.90 "Hg10 mi
7:54 AM60 °FBroken clouds.8 mph83%29.88 "Hg10 mi
6:54 AM59 °FBroken clouds.8 mph87%29.87 "Hg10 mi
Weather by CustomWeather, © 2015

See weather overviewHow to use our weather pages